Regional Weather Roundup
Issued by NWS

Home | Current Version | Previous Version | Graphics & Text | Print | Product List | Glossary On
Versions: 1 2 3 4 5 6 7 8 9 10 11 12 13 14 15 16 17 18 19 20 21 22 23 24 25 26 27 28 29 30 31 32 33 34 35 36 37 38 39 40 41 42 43 44 45 46 47 48 49 50
000
ASUS43 KLOT 290903
RWRIL

ILLINOIS REGIONAL WEATHER ROUNDUP
NATIONAL WEATHER SERVICE CHICAGO/ROMEOVILLE IL
400 AM CDT MON AUG 29 2016

NOTE: "FAIR" INDICATES FEW OR NO CLOUDS BELOW 12,000 FEET WITH NO
SIGNIFICANT WEATHER AND/OR OBSTRUCTIONS TO VISIBILITY.

* THESE STATIONS ARE NOT UNDER NWS QUALITY CONTROL. THEY ALSO MAY NOT
  REPORT WEATHER SUCH AS PRECIPITATION OR FOG.

ILZ001-002-007-009-015-016-024-291000-
NORTHWEST ILLINOIS

CITY           SKY/WX    TMP DP  RH WIND       PRES   REMARKS
MOLINE         CLEAR     70  67  90 SE3       30.18R
STERLING*      CLEAR     69  68  96 E3        30.19S
SAVANNA*       CLEAR     68  67  96 NE5       30.19S
$$

ILZ003-004-008-010-011-017-018-291000-
NORTH CENTRAL ILLINOIS

CITY           SKY/WX    TMP DP  RH WIND       PRES   REMARKS
ROCKFORD       PTCLDY    69  66  90 NE5       30.22R
FREEPORT*      PTCLDY    65  64  99 CALM      30.23R FOG
ROCHELLE*      CLEAR     68  68  99 E5        30.21F FOG
$$

ILZ005-006-012>014-019>023-291000-
NORTHEAST ILLINOIS

CITY           SKY/WX    TMP DP  RH WIND       PRES   REMARKS
CHICAGO-OHARE  PTCLDY    72  68  87 NE3       30.21R
CHICAGO-MIDWAY PTCLDY    73  68  84 NE6       30.20S
AURORA         CLEAR     69  67  93 CALM      30.21S FOG
LANSING*       PTCLDY    70  70 100 CALM      30.20S
JOLIET*        CLEAR     71  70  97 N3        30.20S
WAUKEGAN       CLEAR     66  65  96 N3        30.22R FOG
DUPAGE AIRPORT CLEAR     66  64  93 N5        30.21R
KANKAKEE*      CLEAR     68  67  98 CALM      30.20S
WHEELING       PTCLDY    69  67  93 CALM      30.23R
MORRIS*        CLEAR     68  67  98 CALM      30.19R FOG
ROMEOVILLE*    MOCLDY    69  69 100 E6        30.21R
$$

LMZ740>746-291000-
SOUTHERN LAKE MICHIGAN

STATION/POSITION SKY/WX   TEMP    WIND        PRES    VSBY  WAVE
                          AIR SEA DIR/SP/G                  HT/PER
                          (F)     (DEG/KT/KT) (MB)    (MI)  (FT/S)
SOUTHERN BUOY              73 75   90/  6/  8 1022.7          1
WILMETTE HARBOR            74 73  130/  4/  6   N/A           1/ 3
HARRISON CRIB              75     100/  6/  7   N/A
BURNHAM HARBOR             72      50/  4/  4   N/A
CALUMET HARBOR             72      70/  3/  5 1022.2R
BURNS HARBOR               71      CALM  /  5 1023.0S
MICHIGAN CITY              69      40/  3/  3   N/A
MICHIGAN CITY 6N           72 75  110/  4/  4   N/A           1/ 3
ST. JOSEPH                 71 75  110/  2/  4 1023.0R         1/ 3
$$

ILZ025>027-034>036-040-047-049-050-058-095>099-291000-
WEST-CENTRAL ILLINOIS

CITY           SKY/WX    TMP DP  RH WIND       PRES   REMARKS
QUINCY         CLEAR     71  71 100 E7        30.14S
GALESBURG*     PTCLDY    69  68  94 CALM      30.17S
MACOMB*        CLEAR     67  67 100 CALM      30.19R FOG
JACKSONVILLE*  CLEAR     70  69  96 CALM      30.15S FOG
PITTSFIELD*    CLEAR     71  71  99 CALM      30.16S FOG
$$

ILZ028>032-037-038-041>044-048-051>054-059>061-291000-
CENTRAL ILLINOIS

CITY           SKY/WX    TMP DP  RH WIND       PRES   REMARKS
PONTIAC        CLEAR     69  69 100 CALM      30.20R FOG
BLOOMINGTON    CLEAR     69  67  93 E3        30.19R
DECATUR        CLEAR     71  69  93 NE3       30.16S FOG
PEORIA         CLEAR     70  70 100 NE3       30.17R
LACON*         CLEAR     67  67  97 CALM      30.18R FOG
LINCOLN*       CLEAR     70  70 100 CALM      30.17R
SPRINGFIELD    CLEAR     73  71  93 E3        30.16R
TAYLORVILLE    CLEAR     69  69  99 CALM      30.15S FOG
$$

ILZ033-039-045-046-055>057-062-063-291000-
EAST-CENTRAL ILLINOIS

CITY           SKY/WX    TMP DP  RH WIND       PRES   REMARKS
CHAMPAIGN      CLEAR     71  69  93 E8        30.18R
RANTOUL*       CLEAR     72  70  95 CALM      30.17S
MATTOON        CLEAR     69  67  93 CALM      30.16R
PARIS*         CLEAR     68  68 100 CALM      30.18S
$$

ILZ079-100>102-291000-
SOUTHWEST ILLINOIS

CITY           SKY/WX    TMP DP  RH WIND       PRES   REMARKS
ALTON          CLEAR     71  70  98 CALM      30.14S FOG
BELLEVILLE     CLEAR     74  74 100 N3        30.12S
CAHOKIA*       CLEAR     74  71  91 CALM      30.12F
SPARTA*        CLEAR     73  73  98 CALM      30.13S
$$

ILZ064>066-069>071-074>076-080>082-084>086-088>090-092>094-291000-
SOUTH-CENTRAL ILLINOIS

CITY           SKY/WX    TMP DP  RH WIND       PRES   REMARKS
CARBONDALE     CLEAR     72  71  97 W3        30.11F FOG
EFFINGHAM*     CLEAR     71  71  99 NE3       30.17R
MARION         CLEAR     73  72  94 CALM      30.12F FOG
MT. VERNON     CLEAR     72  66  83 CALM      30.13S
CENTRALIA*     CLEAR     71  71  98 CALM      30.12S
SALEM*         CLEAR     71  69  92 CALM      30.13S
METROPOLIS*    CLEAR     73  72  98 CALM      30.11S FOG
$$

ILZ067-068-072-073-078-083-087-091-291000-
SOUTHEAST ILLINOIS

CITY           SKY/WX    TMP DP  RH WIND       PRES   REMARKS
LAWRENCEVILLE  PTCLDY    70  70 100 N3        30.15R
FLORA*         PTCLDY    72  70  93 NE5       30.15R
FAIRFIELD*     CLEAR     73  70  91 E3        30.12S
HARRISBURG*    CLEAR     75  74  99 E5        30.13R FOG
ROBINSON*      CLEAR     66  66 100 CALM        N/A  FOG
CARMI*         CLEAR     71  71 100 E3        30.13R
$$

ABBREVIATIONS USED IN REMARKS
   TC - TEMPERATURE IN CELSIUS
  WCI - WIND CHILL INDEX
   HX - HEAT INDEX
  VSB - VISIBILITY
$$





USA.gov is the U.S. government's official web portal to all federal, state and local government web resources and services.